Location: Hiram
(41.3130°N, 81.1440°W)
Time: 01:27:24
(UTC-05:00)

Iridium 62 - Visible Passes

Search period start: 11 February 2016 00:00
Search period end: 21 February 2016 00:00
Orbit: 776 x 779 km, 86.4° (Epoch: 10 February)

Date Brightness Start Highest point End Pass type
(mag) Time Alt. Az. Time Alt. Az. Time Alt. Az.
11 Feb 7.1 18:30:12 10° ESE 18:33:38 18° E 18:37:05 10° NE visible
11 Feb 6.6 20:08:50 10° SSW 20:13:53 51° W 20:18:59 10° N visible
12 Feb 7.3 06:38:39 10° NNE 06:43:34 41° E 06:48:28 10° SSE visible
12 Feb 5.7 19:35:07 10° S 19:40:19 86° E 19:45:34 10° N visible
12 Feb 8.9 21:20:30 10° W 21:21:46 11° WNW 21:23:02 10° WNW visible
13 Feb 8.4 06:05:44 10° NNE 06:09:50 23° ENE 06:13:54 10° SE visible
13 Feb 6.0 19:01:55 10° SSE 19:06:52 47° E 19:11:51 10° NNE visible
13 Feb 8.3 20:44:03 10° WSW 20:47:51 20° WNW 20:51:40 10° NNW visible
14 Feb 8.9 05:33:45 10° NE 05:35:57 13° ENE 05:38:08 10° E visible
14 Feb 6.8 18:29:19 10° SE 18:33:33 26° E 18:37:48 10° NNE visible
14 Feb 7.3 20:09:18 10° SSW 20:14:04 36° W 20:18:52 10° NNW visible
15 Feb 6.6 06:38:35 10° N 06:43:45 59° E 06:48:52 10° SSE visible
15 Feb 6.2 19:35:16 10° SSW 19:40:26 66° W 19:45:38 10° N visible
16 Feb 7.8 06:05:25 10° NNE 06:10:05 32° E 06:14:43 10° SE visible
16 Feb 5.8 19:01:45 10° S 19:06:54 68° E 19:12:06 10° N visible
16 Feb 8.8 20:45:29 10° WSW 20:48:10 14° WNW 20:50:51 10° NW visible
17 Feb 8.7 05:32:44 10° NNE 05:36:17 18° ENE 05:39:49 10° ESE visible
17 Feb 6.3 18:28:47 10° SSE 18:33:30 37° E 18:38:16 10° NNE visible
17 Feb 8.0 20:10:03 10° SW 20:14:18 25° WNW 20:18:35 10° NNW visible
18 Feb 5.9 06:38:37 10° N 06:43:52 85° E 06:49:05 10° S visible
18 Feb 7.0 19:35:36 10° SSW 19:40:35 45° W 19:45:35 10° N visible
19 Feb 7.0 06:05:15 10° N 06:10:17 46° E 06:15:16 10° SSE visible
19 Feb 5.9 19:01:46 10° S 19:06:59 84° W 19:12:14 10° N visible
20 Feb 8.1 05:32:14 10° NNE 05:36:34 26° ENE 05:40:51 10° SE visible
20 Feb 6.0 18:28:28 10° SSE 18:33:31 53° E 18:38:35 10° NNE visible
20 Feb 8.6 20:11:07 10° WSW 20:14:34 18° WNW 20:18:04 10° NNW visible
